Find Starlink 11466

NORAD ID: 62220 Int'l Des: 2024-231 Owner: SPXS Country: US Constellation: starlink operational
LEOCIRCULAR

Live Position

Loading 3D Globe...

About Starlink 11466

Description loading...

Upcoming Passes

Passes for default location (London). Set your location on the main map for personalized predictions.

Altitude History

Loading altitude history...

Two-Line Element Set

1 62220U 24231C 26127.29483887 .00242258 00000-0 19343-2 0 9996
2 62220 53.1571 172.5453 0000914 142.3823 217.7259 15.69863291 82610
Epoch: May 7, 2026 • Age: 10 hours

Current Status

Altitude 358.5 km
Velocity 7.70 km/s
Sub-Earth Point 6.86°N, 134.72°W
Launch Date Dec 5, 2024
Age 1.4 years
Type internet

Technical Details

Classification Payload
Mass 960.00 kg
Dry Mass 910.00 kg
Total Mass 960.00 kg
Length 0.30 m
Diameter 4.10 m
Span 29.00 m
Shape Box + pan
Manufacturer SPXS
Bus Type Starlink V2MD
Phase Status In Orbit
Owner/State SPXS/US

Most Searched